STARLINK-4476 (53419 NORAD) Tracking and Keplerian Element Data

This shows tracking and keplerian element data for the satellite.

Feedback or suggestion? Click here.




ElementValue
Catalog53419
NameSTARLINK-4476
Epoch Orbit130
Epoch Day269.91667824
Epoch Year2022
RAAN13.081
Inclination53.2181
Eccentricity0.0002199
Argument of Perigee42.4388
Mean Anonmoly168.0917
Mean Motion15.50009323
Decay Rate-0.00211657
L11 53419U 22097AH 22269.91667824 -.00211657 00000+0 -38055-2 0 9992
L22 53419 53.2181 13.0810 0002199 42.4388 168.0917 15.50009323 1301

Live tracking and technical data element details for STARLINK-4476 (NORAD 53419). STARLINK-4476 can be tracked NOW for your location showing map with azimuth and elevation plus other details from your city location.

Track the satellite on the map from your city or location and see movement details for azimuth, elevation, latitude, longitude, range, height, and movement on the map or in text.







IsCatalogInMostPopularTable: catalog: 53419, numindb: 3
Update: records affected: 1



GetName: 53419 STARLINK-4476

Hit Count: updated at: Wed, 28 Sep 2022 23:26:51 GMT